Location: Unspecified
(0.0000°N, 0.0000°E)
Time: 11:59:54
(UTC+00:00)

LES 2 - Pass Details

Date: 19 August 2024
Orbit: 2771 x 14805 km, 32.2° (Epoch: 15 September)

Event Time Altitude Azimuth Distance (km) Brightness Sun altitude
Rises 20:54:04 0° 261° (W) 6,575 ? -41.4°
Reaches altitude 10° 20:58:32 10° 249° (WSW) 5,724 ? -42.5°
Maximum altitude 21:12:19 30° 188° (S) 5,587 ? -45.8°
Enters shadow 21:18:17 28° 166° (SSE) 6,557 ? -47.2°
Exits shadow 21:50:07 - 123° (ESE) 13,072 ? -54.7°
Sets 22:06:22 0° 114° (ESE) 15,771 ? -58.4°
